Tracking 17145 objects as of 29-May-2015
HD Live streaming from Space Station

GOES 4 AKM

Track GOES 4 AKM now!
GOES 4 AKM is classified as:


NORAD ID: 11970
Int'l Code: 1980-074C
Perigee: 33,789.0 km
Apogee: 50,269.3 km
Inclination: 23.8 °
Period: 1,766.2 minutes
Semi major axis: 48400 km
RCS: 0.003 m2 (small)
Launch date: September 9, 1980
Source: United States (US)

Note: This is a ROCKET BODY
Your satellite tracking list
Your tracking list is empty





NASA's NSSDC Master Catalog

Two Line Element Set (TLE):
1 11970U 80074C   15149.50597500 -.00000210  00000-0  00000+0 0  9991
2 11970 023.8404 349.4425 1702507 173.2881 160.8197 00.81532933103330

Source of the keplerian elements: AFSPC

N2YO: 364